TimePST,TemperatureF,Dew PointF,Humidity,Sea Level PressureIn,VisibilityMPH,Wind Direction,Wind SpeedMPH,Gust SpeedMPH,PrecipitationIn,Events,Conditions,WindDirDegrees,DateUTC
12:25 AM,55.4,51.8,88,30.13,5.0,Calm,Calm,-,N/A,,Mostly Cloudy,0,2012-11-28 08:25:00
12:47 AM,57.9,53.1,84,30.12,5.0,East,3.5,-,N/A,,Haze,100,2012-11-28 08:47:00
1:47 AM,57.0,52.0,83,30.12,5.0,Calm,Calm,-,N/A,,Haze,0,2012-11-28 09:47:00
2:47 AM,57.0,53.1,87,30.14,5.0,Calm,Calm,-,N/A,,Overcast,0,2012-11-28 10:47:00
3:47 AM,57.0,53.1,87,30.13,6.0,Calm,Calm,-,N/A,,Overcast,0,2012-11-28 11:47:00
4:47 AM,57.9,52.0,81,30.11,6.0,East,3.5,-,N/A,,Haze,90,2012-11-28 12:47:00
5:47 AM,57.0,52.0,83,30.12,5.0,Calm,Calm,-,N/A,,Haze,0,2012-11-28 13:47:00
6:47 AM,57.9,51.1,78,30.14,4.0,Calm,Calm,-,N/A,,Haze,0,2012-11-28 14:47:00
7:47 AM,59.0,52.0,78,30.18,3.0,Calm,Calm,-,N/A,,Haze,0,2012-11-28 15:47:00
8:47 AM,60.1,51.1,72,30.20,4.0,Calm,Calm,-,N/A,,Haze,0,2012-11-28 16:47:00
9:19 AM,62.6,51.8,68,30.19,5.0,NNE,3.5,-,N/A,,Haze,30,2012-11-28 17:19:00
9:47 AM,63.0,50.0,63,30.18,4.0,NNE,3.5,-,N/A,,Haze,30,2012-11-28 17:47:00
10:32 AM,64.4,50.0,59,30.17,5.0,Variable,3.5,-,N/A,,Haze,0,2012-11-28 18:32:00
10:47 AM,64.0,50.0,60,30.18,8.0,Calm,Calm,-,N/A,,Partly Cloudy,0,2012-11-28 18:47:00
11:47 AM,66.0,50.0,56,30.15,5.0,Calm,Calm,-,N/A,,Haze,0,2012-11-28 19:47:00
12:47 PM,66.9,50.0,54,30.13,6.0,Variable,3.5,-,N/A,,Haze,0,2012-11-28 20:47:00
1:47 PM,66.0,50.0,56,30.12,6.0,Calm,Calm,-,N/A,,Haze,0,2012-11-28 21:47:00
2:47 PM,64.9,52.0,63,30.12,8.0,Calm,Calm,-,0.00,,Overcast,0,2012-11-28 22:47:00
3:47 PM,63.0,52.0,67,30.14,10.0,West,4.6,-,0.00,,Overcast,270,2012-11-28 23:47:00
5:47 PM,62.1,52.0,70,30.16,10.0,Calm,Calm,-,N/A,,Overcast,0,2012-11-29 01:47:00
6:47 PM,62.1,52.0,70,30.17,10.0,Calm,Calm,-,N/A,,Overcast,0,2012-11-29 02:47:00
7:47 PM,61.0,55.0,81,30.18,10.0,Calm,Calm,-,N/A,,Overcast,0,2012-11-29 03:47:00
8:28 PM,60.8,55.4,82,30.19,6.0,Calm,Calm,-,0.00,Rain,Light Rain,0,2012-11-29 04:28:00
8:38 PM,59.0,55.4,88,30.19,7.0,Calm,Calm,-,0.00,,Overcast,0,2012-11-29 04:38:00
8:47 PM,60.1,55.9,86,30.19,6.0,Calm,Calm,-,0.00,,Overcast,0,2012-11-29 04:47:00
9:47 PM,60.1,55.0,83,30.19,7.0,East,3.5,-,N/A,,Overcast,100,2012-11-29 05:47:00
10:47 PM,61.0,55.0,81,30.20,6.0,East,3.5,-,0.00,Rain,Light Rain,100,2012-11-29 06:47:00
11:25 PM,60.8,55.4,82,30.20,2.5,East,5.8,-,0.01,Rain,Light Rain,100,2012-11-29 07:25:00
11:28 PM,59.0,55.4,88,30.20,2.5,East,3.5,-,0.02,Rain,Light Rain,100,2012-11-29 07:28:00
11:39 PM,59.0,55.4,88,30.20,2.5,Variable,6.9,-,0.02,Rain,Light Rain,0,2012-11-29 07:39:00
11:47 PM,57.9,55.9,93,30.19,2.5,Variable,3.5,-,0.02,Rain,Light Rain,0,2012-11-29 07:47:00
11:50 PM,57.2,55.4,94,30.20,2.5,East,4.6,-,0.00,Rain,Light Rain,100,2012-11-29 07:50:00
11:55 PM,57.2,55.4,94,30.20,2.5,East,3.5,-,0.01,Rain,Light Rain,90,2012-11-29 07:55:00